TIANYAN 01

Last updated on Thu Oct 30 2025 00:03:10 GMT+0000 (Coordinated Universal Time)

1 44881U 19093C 25302.46152637 .00001546 00000+0 18296-3 0 9997 2 44881 97.7804 15.0769 0014900 122.7802 237.4851 14.85948270317140
UTC large
Height (km)
Speed (km/s)
/
Latitude / Longitude
Inclination (degrees)
Orbital Period (minutes)
Azimuth
Elevation
Range (km)
Doppler Factor

Next 0 passes for location: London (51.5072 / 0.1276)

Sorry there are no passes over London.